Location: Bergen
(60.3910°N, 5.3250°E)
Time: 12:23:34
(UTC+01:00)

ISS - Visible Passes

Search period start: 25 November 2017 00:00
Search period end: 05 December 2017 00:00
Orbit: 401 x 407 km, 51.6° (Epoch: 25 November)

Date Brightness Start Highest point End Pass type
(mag) Time Alt. Az. Time Alt. Az. Time Alt. Az.
03 Dec -1.4 18:43:03 10° SSW 18:44:26 15° S 18:44:26 15° S visible
04 Dec -1.3 17:51:19 10° S 17:52:50 13° SSE 17:54:02 11° SE visible
04 Dec -0.9 19:26:07 10° SW 19:26:40 13° SW 19:26:40 13° SW visible
